Location: *
(51.5000°N, 0.1100°W)
Time: 13:13:58
(UTC+00:00)

IDEFIX/ARIANE 42P - Pass Details

Date: 12 August 2024
Orbit: 782 x 799 km, 98.5° (Epoch: 15 September)

Event Time Altitude Azimuth Distance (km) Brightness Sun altitude
Rises 01:40:26 0° 16° (NNE) 3,285 7.3 -20.5°
Reaches altitude 10° 01:42:47 10° 20° (NNE) 2,353 6.2 -20.3°
Maximum altitude 01:47:57 66° 103° (ESE) 858 2.7 -20.0°
Enters shadow 01:50:10 34° 174° (S) 1,275 3.2 -19.8°
